Theta_e
314 316 322 324 322 322 321 323 318 320 319 311 314 316 319 325 326 325 326 326 325 327 327 328 327 328 327 331 346 349 347 353 352 344 349 356 349 350 350 348 347 346 343 332 327 332 330 321 317 319 320 322 323 327 329 330 333 335 333 330 326 330 337 340 343 343 343 343 343 344 344 344 343 344 344 344 344 344 343 344 344 343 344 343 343 342 341 341 340 339 338 336 333 333 332 332 330
314 315 319 321 322 321 321 323 316 314 314 308 313 317 320 325 325 324 327 326 326 327 327 329 327 331 327 332 345 348 351 350 350 351 350 349 348 352 349 348 347 345 341 334 336 337 334 325 318 319 321 321 322 324 324 324 327 329 329 328 325 332 339 342 343 342 343 343 344 344 343 344 343 344 343 343 343 343 343 343 344 344 343 343 342 342 341 340 340 339 338 336 334 333 332 332 331
313 314 318 321 322 322 322 322 315 309 310 308 312 320 323 324 324 325 327 326 327 327 327 327 328 331 329 341 347 349 354 350 348 347 343 347 351 352 349 349 346 343 341 340 342 340 334 327 318 320 321 322 324 325 324 323 324 325 327 327 328 335 340 342 342 342 343 343 344 344 344 344 343 344 343 343 343 343 343 343 344 343 343 343 342 341 341 340 339 336 334 335 335 334 332 332 331
312 314 319 323 321 320 321 320 317 311 309 308 310 320 324 323 325 325 326 326 328 330 329 328 328 331 334 343 347 349 351 348 349 347 345 349 351 351 349 347 345 343 342 343 343 338 331 325 319 320 321 322 324 327 327 326 326 327 327 329 334 339 340 341 342 342 343 343 344 343 343 343 344 343 343 343 343 343 343 343 343 343 343 342 342 341 341 340 336 331 331 334 336 335 333 331 331
314 316 319 322 320 320 321 319 318 313 311 312 312 320 324 323 325 324 325 327 328 331 330 330 327 333 344 345 346 348 348 346 348 349 349 351 352 351 348 347 345 344 343 343 342 334 328 325 322 321 322 325 328 331 332 332 332 332 332 335 338 340 341 341 342 343 343 343 344 343 344 343 343 343 343 343 343 343 342 343 342 342 341 340 339 337 336 335 332 327 328 332 334 334 333 331 330
319 321 321 320 320 320 319 315 314 312 316 319 316 320 323 322 324 324 325 327 327 329 329 330 327 333 347 347 346 346 346 346 348 350 352 352 351 349 348 347 345 345 344 342 339 334 332 329 325 325 330 335 337 338 340 339 339 338 338 339 340 341 341 342 343 343 343 343 343 343 343 343 343 343 343 342 342 342 342 342 342 342 341 340 338 333 330 330 330 327 328 331 332 332 332 331 331
320 320 320 320 320 320 317 312 312 313 318 322 320 321 323 322 324 323 324 326 324 326 326 330 330 334 346 347 347 347 346 347 349 352 353 352 351 350 348 346 346 345 343 342 340 339 336 331 329 331 337 340 341 342 343 343 343 341 340 341 341 342 342 343 343 343 343 343 343 343 343 342 342 342 341 341 341 341 341 341 341 341 340 340 337 332 330 327 326 326 328 331 332 331 331 331 330
319 318 319 319 320 320 317 313 315 317 319 322 322 322 323 323 324 323 323 325 322 324 323 329 331 336 345 348 348 349 350 351 353 353 353 353 351 349 348 346 347 345 344 342 339 341 339 335 335 337 340 340 341 343 343 344 344 342 342 342 342 342 342 343 343 344 343 343 343 342 342 341 341 341 341 340 339 338 338 337 337 336 335 336 334 332 330 326 323 325 329 331 331 330 330 330 329
319 318 318 318 318 317 315 314 316 319 321 322 322 323 324 324 323 323 323 323 323 323 322 324 327 338 348 350 349 350 352 354 354 353 353 352 351 349 348 346 346 345 345 340 333 338 340 338 339 339 340 340 341 343 343 344 343 343 343 342 342 342 343 343 343 343 343 342 342 341 340 340 340 339 338 337 336 336 335 334 332 330 329 330 330 329 327 324 322 326 330 331 330 330 330 330 330
318 318 318 319 317 313 311 313 316 319 321 322 322 323 323 323 323 324 323 322 323 322 323 323 323 342 351 351 351 350 350 354 353 353 352 351 350 348 347 346 347 346 344 339 335 339 340 339 340 339 339 339 341 342 343 344 343 344 343 343 343 343 343 343 343 342 342 341 340 339 337 335 334 332 330 329 329 330 329 328 326 323 323 324 325 326 325 322 322 326 331 332 330 330 330 330 331
318 318 318 317 314 310 309 312 315 320 321 322 322 323 323 324 324 323 323 321 322 321 323 320 323 344 352 354 352 351 351 352 353 352 352 350 349 347 346 346 347 345 343 341 340 341 340 339 340 339 338 339 340 340 341 342 343 344 343 343 342 342 342 342 342 341 341 339 337 335 333 331 329 327 324 323 323 323 323 324 324 322 320 319 321 323 324 321 321 327 330 332 332 331 331 331 331
317 318 319 315 312 312 313 313 315 320 321 321 322 323 323 324 324 322 322 320 321 321 321 320 325 347 354 355 352 350 352 351 351 351 351 350 348 347 346 347 347 345 343 342 342 341 340 340 339 338 338 339 339 339 341 342 343 343 342 343 342 342 342 341 341 340 339 338 337 335 334 333 331 330 328 326 324 323 324 325 326 324 319 316 318 319 322 321 320 326 330 331 332 332 331 331 331
317 317 318 315 315 316 315 314 317 320 319 321 322 323 323 323 323 321 322 320 320 320 321 320 325 346 355 355 352 350 351 351 351 350 350 349 347 346 347 348 347 345 344 342 342 342 341 341 340 339 338 337 338 339 341 342 343 343 342 342 342 342 341 341 340 339 339 338 337 337 336 336 335 335 333 331 328 325 324 325 326 325 321 315 315 317 319 319 319 324 329 330 332 332 332 332 331
317 317 317 315 317 317 316 315 316 317 316 321 321 322 322 321 322 320 321 319 320 321 321 322 331 351 356 355 354 351 350 351 351 349 349 348 346 345 346 347 347 346 344 343 343 342 342 341 341 339 338 338 339 340 341 342 342 343 342 342 342 341 341 340 339 339 339 338 337 336 336 336 335 335 334 334 332 328 325 324 325 326 324 318 313 314 316 318 318 323 327 329 331 332 332 332 331
316 317 318 315 315 314 316 315 316 315 315 321 321 321 321 320 321 319 320 319 320 322 322 323 332 349 355 356 355 351 351 351 350 349 348 347 346 345 346 347 347 346 344 344 344 343 343 341 341 340 340 339 339 341 341 342 342 342 342 342 341 341 340 339 339 338 338 337 336 335 334 334 335 335 334 332 332 331 328 325 325 326 326 321 313 311 314 316 316 320 326 328 330 332 332 332 331
317 316 317 315 313 311 314 316 317 315 317 321 319 321 320 320 321 319 321 321 323 323 322 327 329 340 348 352 353 351 352 351 350 349 349 347 347 346 347 347 346 346 345 345 344 344 343 341 342 341 340 339 339 340 341 342 342 342 342 342 342 340 340 339 338 337 337 337 336 336 336 337 337 338 338 335 332 332 331 327 325 326 327 324 317 312 311 313 315 317 323 327 329 331 332 332 331
317 316 316 313 312 311 314 317 316 315 318 321 320 321 320 320 321 321 324 323 326 325 327 336 338 341 345 350 351 352 353 352 351 350 350 348 347 347 347 347 346 346 345 345 344 344 344 343 343 342 341 340 339 338 339 340 341 342 341 342 341 340 339 338 338 336 337 337 336 338 338 339 339 338 339 338 336 335 334 330 326 325 326 326 323 322 317 311 311 315 320 325 327 331 332 332 331
317 316 314 311 313 314 316 318 318 318 319 321 320 321 320 320 320 322 326 326 327 324 332 344 350 349 348 352 353 353 352 351 352 351 351 349 349 348 347 347 347 347 346 345 345 345 344 344 344 342 342 341 339 338 338 338 339 341 341 341 340 338 338 337 337 337 338 337 336 338 338 338 339 338 337 338 340 338 334 330 328 325 326 326 325 330 330 320 312 311 317 323 325 329 330 333 334
317 317 314 313 316 317 318 319 319 320 320 321 321 321 320 320 320 322 326 328 328 323 335 348 353 356 353 354 353 353 352 352 352 351 352 351 350 349 347 347 347 347 346 345 345 345 344 344 344 343 342 341 340 338 336 336 338 340 341 341 340 339 339 338 340 341 340 339 338 339 337 336 337 337 336 338 340 336 331 329 328 327 329 329 327 331 335 332 321 311 313 320 324 327 330 337 340
318 317 316 316 317 317 319 319 319 320 320 321 320 320 320 321 320 321 322 327 328 323 338 350 353 357 354 352 353 353 352 352 352 352 352 351 350 349 347 347 347 347 346 346 345 344 344 344 344 343 342 341 339 337 335 335 337 339 340 341 341 341 340 340 341 341 340 339 339 338 337 337 336 336 334 335 337 336 335 334 333 333 334 333 330 332 336 337 332 322 314 315 320 324 330 338 341
318 317 316 317 317 317 319 319 320 320 320 319 319 321 320 320 322 322 322 325 329 323 334 349 351 355 354 351 352 353 353 352 353 353 352 351 349 348 347 348 347 347 346 346 345 344 344 343 343 342 341 341 338 337 337 337 337 337 338 339 340 340 340 340 340 339 338 338 338 338 339 339 338 338 337 337 338 338 339 339 338 337 338 338 335 333 336 337 337 333 324 318 319 325 332 336 338
318 318 317 317 318 318 319 320 321 320 320 319 318 320 319 320 324 326 327 327 330 327 333 348 351 352 353 351 351 352 352 352 353 352 351 350 349 348 347 347 347 346 346 346 345 344 343 342 342 341 340 340 337 337 337 336 335 336 337 337 338 338 338 338 338 338 338 338 339 340 340 340 340 340 339 339 339 339 339 339 339 338 338 339 337 334 337 338 338 337 332 327 326 330 333 334 335
317 318 317 318 318 318 319 319 320 320 319 318 318 320 319 319 321 324 328 329 332 333 337 347 350 351 352 352 351 351 351 351 352 350 349 349 348 348 346 346 346 346 345 345 344 343 342 342 341 340 339 337 336 336 336 335 336 337 337 337 337 336 337 337 337 338 338 339 339 340 340 341 340 339 340 340 339 339 339 339 339 339 339 338 336 336 336 336 336 336 333 331 331 330 331 332 333
318 318 318 318 318 317 318 319 320 320 318 318 318 319 318 319 319 320 326 329 336 340 341 346 348 349 350 351 351 351 351 349 348 347 347 348 347 346 346 346 345 345 344 344 343 342 341 340 339 338 337 336 336 335 334 335 336 337 337 337 336 337 337 337 338 339 339 340 339 339 341 340 339 339 339 340 338 339 339 339 339 339 339 338 337 336 336 335 335 336 334 333 333 331 331 331 332
317 317 318 318 318 318 318 318 320 319 318 318 318 319 318 320 319 320 332 335 338 342 342 346 348 349 349 351 351 350 348 346 347 347 347 347 346 346 345 345 344 344 344 343 342 341 339 338 337 336 336 336 336 335 335 336 337 337 337 337 337 337 337 338 340 340 340 341 340 340 341 340 340 339 339 340 339 339 340 340 338 339 339 338 337 338 338 338 337 337 336 335 334 334 333 333 333
317 317 318 317 318 318 318 319 319 319 320 318 318 318 318 321 318 325 344 345 341 343 343 345 347 349 350 350 349 348 346 346 347 347 346 344 344 345 345 344 344 343 342 341 340 339 338 337 337 336 336 337 336 336 336 337 337 337 338 338 338 338 340 341 340 340 340 341 341 340 341 341 341 340 340 341 339 338 340 339 338 338 339 338 338 339 339 339 339 339 338 337 336 336 335 334 334
317 317 317 317 318 318 319 319 318 320 319 318 318 316 318 321 316 333 350 345 341 346 349 347 346 347 349 348 346 345 344 344 344 344 343 339 339 343 345 344 343 342 340 339 339 338 337 336 336 336 337 337 337 337 337 338 338 339 339 339 339 340 341 341 340 340 340 340 341 341 341 340 342 342 341 341 339 337 338 338 339 339 338 339 339 339 339 340 339 339 339 338 338 337 337 336 335
317 317 317 317 317 317 319 318 319 320 319 319 317 317 320 317 318 341 348 344 343 349 352 346 343 343 343 342 342 343 342 340 340 340 341 339 340 343 344 343 341 340 338 338 338 337 337 337 336 337 338 338 338 339 339 340 340 341 340 340 340 341 342 341 341 340 341 341 341 340 341 341 342 342 340 341 340 339 338 338 339 339 338 339 338 338 339 339 338 339 338 338 338 338 338 338 337
316 316 317 317 317 317 317 319 320 319 318 319 317 317 316 317 336 348 345 341 345 348 347 342 339 338 339 341 341 341 340 339 338 338 341 343 342 342 342 341 339 338 338 337 336 336 337 337 337 338 338 339 339 340 340 340 341 342 341 341 342 341 342 342 341 341 341 342 341 340 342 341 341 341 340 340 341 340 339 339 337 337 339 338 338 339 339 338 338 339 338 338 339 338 338 338 338
315 316 317 317 316 315 317 319 318 318 319 318 317 312 312 330 348 349 344 340 343 344 342 339 339 340 341 342 340 340 340 339 339 339 342 343 342 341 340 339 338 337 338 337 336 337 338 338 339 339 338 338 338 338 338 338 339 340 340 341 342 341 341 341 341 341 341 341 341 341 341 341 341 341 340 339 340 341 340 339 339 337 339 338 338 339 338 338 339 339 338 339 339 339 338 339 338
315 315 316 316 313 312 317 318 318 319 317 318 319 309 317 346 350 348 345 342 343 342 342 340 340 341 340 339 337 337 338 337 339 339 341 344 343 341 339 338 337 337 338 337 337 339 339 339 339 338 338 338 337 336 337 337 336 337 337 339 341 341 340 340 341 341 341 341 341 341 340 340 341 340 340 340 339 340 340 339 340 339 339 339 338 339 338 338 339 339 339 339 338 339 339 339 338
316 313 312 314 312 312 317 317 317 319 317 319 317 310 326 351 348 347 345 342 343 340 340 339 339 339 337 336 335 335 335 335 338 338 341 344 342 340 339 339 338 338 339 340 340 341 339 339 339 339 339 339 338 338 338 337 336 335 335 337 339 341 340 340 340 341 341 341 341 340 340 340 341 341 341 341 340 340 340 339 339 339 338 339 338 337 338 338 338 338 339 338 337 339 339 339 339
315 313 310 311 311 312 315 317 318 318 318 319 316 315 334 349 347 346 344 341 341 338 337 337 337 337 337 336 334 334 335 337 338 337 340 342 341 339 338 338 338 338 340 340 341 340 339 339 339 339 339 340 339 338 338 337 337 337 337 336 337 338 338 338 339 340 341 341 341 341 341 341 341 341 340 340 340 339 339 338 338 338 338 339 338 337 337 337 337 337 337 338 337 338 338 339 338
311 312 310 311 313 311 311 316 318 318 317 318 317 319 334 346 347 346 343 342 341 339 337 336 336 336 336 336 335 335 336 338 339 338 341 342 339 338 338 337 337 338 339 339 339 340 339 338 339 339 339 340 338 337 337 336 337 337 337 337 336 337 336 336 338 340 341 340 340 340 340 340 340 341 340 339 339 338 338 339 338 338 338 338 338 337 337 337 336 336 336 337 336 336 337 337 336
310 310 310 311 313 311 311 314 317 319 316 318 317 315 333 347 346 345 344 343 342 341 338 336 336 336 336 337 337 337 337 339 340 339 342 341 338 337 337 337 337 338 338 338 339 339 340 339 339 339 339 338 338 337 336 336 337 337 337 337 335 336 336 336 338 340 340 339 339 338 338 338 338 339 339 338 338 338 338 338 337 337 337 337 336 336 336 335 335 335 335 335 334 335 336 335 335
312 313 312 310 310 311 313 315 318 319 316 318 317 315 336 347 344 346 345 343 343 341 341 339 339 338 337 338 337 337 339 340 340 340 342 340 337 338 338 337 337 338 338 338 338 339 339 339 338 338 338 337 337 337 336 336 337 337 338 337 334 335 335 336 338 339 338 338 337 337 337 337 337 337 337 337 336 337 337 336 336 335 335 335 335 335 335 334 334 334 334 334 334 334 334 334 334
315 314 313 311 310 311 314 317 318 319 316 316 316 322 338 342 342 347 345 343 344 342 342 342 340 338 337 338 338 338 339 339 340 341 340 339 338 338 338 338 337 338 337 337 338 338 338 338 338 338 337 336 336 337 336 335 336 336 335 336 334 333 335 337 338 337 337 337 336 336 336 336 335 335 335 335 335 335 335 335 334 333 333 333 333 333 332 332 332 332 332 332 332 332 333 333 332
316 314 312 311 311 311 316 318 317 319 317 314 323 336 340 341 342 345 344 344 345 343 343 342 340 338 337 338 338 340 341 338 338 339 339 338 338 338 338 338 338 337 337 337 338 338 338 338 338 337 337 336 335 336 336 334 335 334 334 335 334 333 335 336 337 337 336 335 335 334 334 334 333 332 332 332 332 331 332 332 331 330 329 329 330 330 329 329 329 330 329 328 329 329 330 330 329
316 314 312 310 311 313 315 318 318 319 315 317 333 340 339 340 340 341 344 343 343 344 342 340 340 338 337 338 339 341 341 339 338 338 338 338 338 339 338 337 337 337 336 337 337 337 338 338 337 337 336 336 335 336 335 335 335 334 335 335 335 335 335 336 336 335 335 334 333 333 332 331 331 330 329 329 328 327 328 329 329 328 327 326 327 327 326 326 327 327 327 326 326 326 327 327 327
315 314 311 309 312 312 310 315 319 319 316 322 334 336 337 341 340 340 342 340 341 344 342 340 339 337 337 339 340 340 341 339 338 337 337 337 339 339 337 337 337 336 336 337 337 337 337 337 337 336 336 336 336 336 336 336 336 335 336 336 335 335 335 335 334 333 333 331 330 330 329 329 328 327 326 326 327 326 326 327 327 326 326 324 324 325 324 324 325 325 325 324 325 325 326 326 327
314 314 312 311 313 313 311 315 319 318 316 326 335 335 338 341 341 343 341 339 342 342 342 340 338 336 336 337 338 339 339 339 338 338 337 337 338 338 337 337 337 337 337 338 337 337 337 336 336 335 336 337 336 336 335 335 335 335 335 335 334 334 335 335 333 332 331 330 328 327 327 326 325 325 324 324 325 325 325 324 325 324 324 323 323 323 323 322 323 324 323 324 324 324 324 324 325
311 314 315 315 316 315 316 318 317 313 311 321 333 332 337 339 338 343 341 341 342 341 341 342 340 337 336 337 337 337 339 338 337 338 337 338 338 337 337 337 337 337 337 337 337 336 336 335 335 335 336 337 336 335 334 334 335 334 334 334 333 334 335 334 333 331 329 328 328 326 324 324 323 323 322 322 322 323 323 323 323 323 322 322 321 322 321 321 322 322 322 322 322 322 323 323 323
309 313 316 318 318 316 316 317 314 310 309 319 330 329 333 336 335 340 341 341 342 341 342 341 340 339 337 338 337 336 338 339 337 338 337 337 337 336 337 337 337 337 336 336 336 335 335 334 335 336 336 336 335 334 334 334 334 334 334 333 332 333 334 332 331 330 329 327 326 325 323 322 321 321 320 320 320 320 320 320 320 320 320 319 319 319 319 319 320 320 320 320 320 320 320 321 321
310 315 317 318 318 316 317 317 314 314 313 319 324 325 329 333 334 338 340 340 341 342 342 341 340 340 338 338 338 336 338 338 338 338 337 338 337 336 336 336 336 336 336 335 334 333 333 334 334 335 335 334 334 333 333 334 333 333 333 333 332 333 332 330 329 328 327 326 325 324 322 320 319 319 318 318 318 318 318 317 317 318 318 317 317 317 317 318 319 318 318 318 317 318 318 318 318
313 317 318 318 319 318 318 316 315 317 315 314 317 320 325 329 333 336 339 340 340 340 341 340 341 340 339 338 337 336 337 338 337 337 337 338 337 336 335 335 334 334 335 334 334 333 333 333 333 333 333 332 332 332 332 333 333 333 332 332 331 330 329 329 328 327 325 324 323 322 320 319 318 317 317 317 316 316 316 316 315 315 316 316 316 315 316 317 317 316 317 317 316 316 316 316 315
315 318 318 318 318 317 318 318 314 315 316 312 313 318 321 324 330 336 339 339 337 338 339 340 340 339 338 335 334 335 336 337 336 336 337 337 336 335 334 333 333 333 334 334 333 333 332 332 332 331 331 331 331 331 332 332 332 332 331 330 329 328 328 328 327 325 324 323 322 320 319 318 317 316 316 316 315 315 315 315 314 314 314 314 315 314 315 316 315 314 315 316 315 314 315 314 314
317 318 316 316 317 317 318 316 313 314 316 314 312 317 320 320 325 333 337 336 336 339 339 340 340 338 337 334 334 335 335 336 336 336 336 336 335 334 333 333 333 332 332 333 332 331 331 331 330 330 330 330 330 329 329 329 329 330 329 329 328 328 327 327 326 325 324 322 321 319 317 317 317 316 315 314 314 313 313 313 313 312 312 313 313 313 314 315 313 312 314 314 314 314 314 314 313
316 317 315 312 312 315 316 315 316 318 318 315 313 317 319 318 323 332 335 336 337 338 337 339 339 337 336 334 334 335 335 335 336 336 335 335 334 333 333 332 332 332 332 332 330 329 329 329 328 328 328 328 328 327 327 327 327 327 327 327 327 326 326 325 325 324 322 321 320 318 317 317 316 315 314 313 312 312 312 311 311 311 311 311 312 312 312 313 311 311 312 312 313 313 313 313 312
316 315 312 310 309 314 317 316 318 319 317 315 314 315 316 317 324 333 337 336 336 335 335 338 338 338 336 334 334 335 335 336 336 335 335 334 333 333 333 333 332 332 331 331 330 328 328 327 326 326 326 326 326 325 325 325 325 324 324 324 324 324 324 322 322 321 320 319 318 317 317 316 315 314 313 312 311 311 310 310 310 310 310 310 311 311 311 311 310 309 310 311 312 311 311 311 311
315 312 310 309 310 316 320 318 318 318 315 314 314 314 313 315 324 333 336 335 335 334 335 337 338 338 337 335 335 335 335 335 335 334 334 333 333 333 333 332 332 331 330 329 329 327 327 326 325 325 325 325 324 323 323 323 323 322 322 322 321 321 321 320 319 319 318 317 316 316 316 315 313 312 312 311 311 310 309 309 309 309 309 309 310 310 310 310 309 308 309 310 311 310 309 310 310
314 314 313 311 310 316 318 316 316 316 314 313 314 314 311 315 327 334 332 332 333 332 335 338 337 337 338 336 335 336 335 335 334 334 333 333 334 333 332 331 330 330 329 328 328 327 326 325 324 324 323 323 323 322 321 321 320 320 320 320 319 319 318 318 317 317 316 316 315 315 314 313 312 311 310 310 310 309 308 308 308 308 309 309 309 309 309 309 309 308 308 309 309 309 308 308 308
314 315 314 312 311 314 314 314 315 315 314 312 312 316 318 322 331 333 330 332 332 329 334 338 335 336 337 337 336 336 335 334 334 334 333 333 333 332 331 330 329 328 327 327 326 326 325 324 323 323 322 321 321 320 319 319 319 318 318 318 317 317 317 316 316 315 315 314 314 314 313 311 310 310 309 308 308 308 308 307 307 307 308 308 308 308 308 308 308 308 308 308 308 308 308 308 308
313 313 311 313 316 316 313 312 315 314 314 313 311 318 325 327 330 331 329 331 330 329 335 337 336 336 337 337 337 335 334 334 334 334 332 332 331 330 330 329 328 328 327 326 326 325 324 323 322 321 321 320 319 318 318 317 317 317 317 316 316 316 315 315 314 314 314 313 313 312 311 310 309 309 308 308 307 307 307 307 307 307 307 307 308 307 307 307 307 308 308 307 307 307 308 307 307
313 311 312 315 317 317 314 312 313 313 314 313 311 316 321 321 326 332 329 329 330 332 337 338 337 337 336 337 336 335 335 334 333 332 331 331 330 329 329 328 327 327 326 325 324 323 323 322 321 320 319 319 318 317 316 315 315 315 315 315 315 314 314 314 313 313 313 312 311 310 309 309 308 308 308 307 307 307 307 306 306 306 306 306 307 307 307 307 307 307 307 306 306 307 307 307 307
314 313 316 316 313 312 313 312 313 314 314 313 311 312 315 316 321 329 328 329 334 337 337 338 339 338 337 336 335 334 334 334 333 331 330 330 329 329 328 327 326 326 325 324 323 323 322 321 320 319 318 317 316 315 315 314 314 314 314 314 314 313 313 313 312 312 311 310 309 308 308 308 308 308 307 307 307 307 306 306 306 306 306 306 306 306 306 307 306 306 307 306 306 306 307 307 306
315 315 315 315 313 312 312 312 313 313 313 314 312 310 312 315 322 328 326 329 337 338 337 335 337 338 337 336 334 334 334 333 332 330 329 329 329 328 327 326 325 324 324 323 323 322 321 320 318 318 317 316 315 314 314 313 313 313 313 313 313 312 312 312 311 310 309 308 308 308 307 307 307 307 307 306 306 306 306 305 305 305 305 305 305 306 306 306 306 306 306 306 306 306 306 306 306
311 312 311 312 313 313 313 313 310 311 312 313 314 312 311 316 327 330 326 331 336 337 338 335 336 338 336 335 334 334 334 332 332 331 329 329 328 327 326 325 325 324 323 323 321 321 320 319 317 316 315 315 314 313 313 313 313 313 312 312 311 311 310 310 309 308 308 307 307 307 307 307 306 306 306 306 306 306 305 305 305 305 305 304 304 305 305 306 306 306 306 305 306 306 306 305 305
311 311 311 311 311 311 312 312 311 310 311 312 313 312 312 319 329 329 327 333 334 334 339 338 338 337 335 334 334 334 334 332 332 330 329 328 327 326 325 324 324 323 322 321 320 320 319 318 317 315 315 314 313 313 312 312 312 311 311 311 310 310 309 308 308 307 307 307 306 306 306 306 306 305 305 305 306 306 305 304 304 303 303 303 303 304 304 305 305 305 305 305 305 305 305 305 305
Wind_Speed
14 15 18 19 18 18 14 6 5 2 4 6 6 8 9 12 12 13 13 6 5 3 8 5 7 9 8 5 14 18 14 12 7 3 4 7 12 15 20 26 24 24 23 21 21 18 17 18 18 18 18 18 18 18 18 17 17 17 16 18 19 17 15 14 14 13 13 13 13 13 12 12 12 12 11 12 12 12 13 13 13 12 12 11 11 11 11 11 10 9 9 9 10 10 11 11 12
13 15 16 18 17 12 7 3 6 5 5 7 6 8 10 13 12 15 14 9 8 5 9 4 8 8 8 5 14 17 15 13 11 9 8 15 17 17 21 23 23 24 23 21 19 18 17 18 18 18 18 19 19 19 19 19 18 18 18 19 19 16 15 14 13 13 13 13 13 12 12 12 12 12 12 12 12 12 13 13 12 12 11 11 11 11 10 10 9 9 8 8 9 9 10 11 11
12 13 15 16 12 8 5 5 6 7 7 7 6 8 9 12 13 16 16 14 11 10 8 6 9 7 6 8 15 13 9 9 13 11 9 18 16 16 21 22 24 23 21 20 17 18 18 18 19 19 19 19 20 20 20 20 20 19 19 19 18 16 14 13 12 13 13 13 13 12 12 12 12 12 12 12 12 12 12 13 12 11 11 11 10 10 9 9 8 8 8 8 8 8 9 10 11
11 11 13 12 7 6 6 6 6 8 8 7 7 8 11 11 12 16 13 12 9 9 6 8 8 5 5 8 12 9 9 9 10 10 8 15 17 20 23 23 24 22 20 18 16 18 19 20 20 20 20 20 21 21 21 20 20 20 19 19 18 16 14 13 12 13 13 13 13 12 12 12 12 12 12 12 12 12 12 12 11 10 10 10 10 9 9 8 7 7 8 7 7 7 8 9 10
12 12 13 11 5 5 5 5 6 8 8 7 6 8 11 12 13 16 9 2 5 4 4 6 8 3 11 11 8 5 7 8 9 11 12 18 23 24 24 23 22 21 20 17 17 19 20 21 21 21 21 21 21 22 21 21 20 20 19 19 17 15 14 13 13 13 13 13 13 13 12 12 12 12 12 11 12 12 12 11 10 9 9 9 9 8 8 7 7 7 8 7 7 6 7 8 9
13 14 14 11 5 4 5 6 8 9 10 10 8 10 12 15 16 17 13 4 6 3 1 5 9 2 12 11 8 7 5 7 8 12 18 23 26 25 24 22 21 22 22 19 18 20 21 21 22 22 21 20 20 21 21 20 19 19 19 18 16 14 13 13 13 13 13 13 13 13 13 13 12 12 11 11 11 11 11 10 9 9 8 8 7 7 6 6 6 6 8 8 7 6 6 6 7
12 10 9 8 6 5 7 9 9 9 11 14 12 14 13 16 15 17 21 9 1 2 4 4 4 3 7 8 7 10 8 10 10 15 22 25 27 25 22 21 22 24 23 20 18 19 20 22 22 22 21 20 20 21 20 19 19 18 17 16 15 14 14 14 14 14 13 13 13 13 13 13 12 12 11 11 10 10 10 9 8 8 7 6 6 6 5 5 5 6 7 8 7 7 7 6 6
11 7 4 6 6 5 8 9 10 10 11 15 15 17 17 16 15 18 19 6 3 5 6 2 2 0 6 10 7 9 15 19 18 21 25 25 26 23 22 24 25 24 22 21 20 18 19 22 22 21 21 20 20 20 20 19 18 18 17 16 15 14 14 14 14 14 13 13 13 13 13 12 12 11 11 10 9 8 8 8 7 6 5 4 4 4 4 5 5 6 7 8 8 8 8 7 8
10 7 4 6 7 7 10 10 11 12 13 15 15 17 17 17 17 19 19 9 3 7 10 7 0 3 11 14 11 9 15 23 24 24 25 24 24 22 23 25 25 24 22 22 22 19 17 20 21 21 21 20 20 19 19 19 18 17 16 16 16 15 14 14 14 14 13 13 13 12 12 11 11 10 9 9 8 7 6 6 6 5 4 3 3 3 3 4 6 6 7 8 8 8 9 8 9
7 7 5 6 7 9 10 10 11 12 15 17 18 19 18 18 20 17 15 11 6 7 12 10 2 9 15 14 11 8 12 21 24 22 23 23 21 21 22 24 25 24 22 22 22 19 18 20 21 21 20 20 19 19 19 19 18 17 15 16 15 15 14 14 14 13 13 12 12 12 11 10 9 9 8 8 7 7 6 6 5 5 4 3 2 2 3 4 5 6 7 8 8 8 8 8 9
6 5 6 7 8 10 10 10 11 12 15 16 17 17 18 19 15 7 3 3 5 8 13 14 3 15 16 12 9 10 17 20 21 22 23 23 21 21 21 23 25 24 23 23 21 19 19 19 20 21 20 19 19 19 20 19 18 16 15 15 15 15 14 14 14 13 13 12 11 11 10 10 9 9 8 8 7 7 7 6 6 5 5 3 2 2 2 3 5 6 6 7 7 7 7 7 8
7 6 7 8 8 9 10 12 13 14 16 16 16 16 19 19 9 6 6 2 5 10 10 12 3 17 14 10 9 12 19 18 21 23 23 23 21 21 22 23 23 23 25 24 21 21 21 20 19 20 20 20 20 20 20 19 17 16 16 15 15 14 14 14 13 13 12 11 10 10 9 9 8 8 7 7 6 6 6 6 6 6 5 4 2 1 2 3 4 5 5 6 6 6 6 6 7
7 8 8 9 9 10 12 13 13 15 14 14 16 16 20 16 5 6 7 3 7 11 8 12 3 16 11 10 10 12 16 18 23 24 24 22 21 23 24 23 23 23 24 24 23 22 22 21 19 18 20 20 20 19 18 18 16 16 16 15 14 14 14 14 13 12 11 10 9 8 8 7 6 6 6 6 5 4 4 4 5 6 6 5 3 2 2 3 4 5 5 5 5 5 5 5 6
8 7 8 10 10 12 13 11 12 13 11 14 12 5 7 4 5 3 3 6 8 10 8 9 4 16 12 11 9 9 14 20 25 24 23 22 21 24 24 24 25 25 24 23 23 23 22 21 20 19 19 19 19 19 17 16 16 16 15 15 14 13 14 13 12 11 10 9 8 7 6 6 5 5 5 5 4 3 3 3 4 5 6 6 4 2 2 3 4 5 5 4 4 4 4 4 4
9 6 7 9 10 12 12 11 13 12 10 13 6 8 8 8 5 4 5 8 6 9 7 6 9 11 11 13 10 11 19 25 25 23 22 21 21 22 23 24 25 25 24 24 23 23 21 21 21 20 19 18 17 17 16 16 15 16 15 14 14 13 13 12 11 9 9 8 7 7 6 7 6 5 5 5 4 3 3 3 4 5 7 8 6 3 2 3 4 5 5 4 3 3 3 3 3
8 7 7 8 10 12 11 12 13 12 12 9 4 9 5 6 7 6 3 5 4 9 7 2 7 11 15 14 15 21 26 27 24 23 23 21 21 22 22 23 23 24 24 24 23 22 21 21 21 20 20 19 17 16 15 16 15 15 14 13 13 13 12 10 9 9 8 8 7 7 7 7 8 7 6 5 5 4 4 4 5 5 7 9 8 7 3 1 3 4 5 4 3 2 2 2 3
7 8 9 8 11 11 11 12 11 12 12 6 8 5 4 4 6 4 2 4 5 10 2 9 6 13 16 16 25 30 29 26 25 26 24 19 20 21 21 22 22 22 22 22 21 21 21 21 20 20 20 18 18 17 15 15 15 15 14 13 13 12 11 10 9 9 9 8 7 7 7 6 5 7 5 3 3 4 6 3 4 4 5 8 8 10 9 4 1 4 5 4 3 2 1 2 2
8 7 9 9 10 11 11 13 11 13 11 6 8 2 2 2 3 3 4 5 6 12 4 19 18 18 20 26 33 31 28 27 26 25 22 19 18 19 20 21 21 21 20 20 21 22 22 20 20 21 21 19 18 18 15 15 15 14 13 13 12 11 11 10 9 9 8 7 7 6 7 4 2 5 5 2 2 3 6 4 3 4 5 6 6 8 10 8 3 3 5 5 4 2 2 2 2
9 7 9 10 10 11 12 15 14 15 14 7 8 4 2 3 5 1 3 6 8 11 7 21 19 20 23 28 31 28 28 25 24 23 22 19 16 18 19 20 21 21 20 20 21 22 22 21 21 22 22 20 18 17 16 17 16 13 12 12 12 11 10 9 8 9 7 5 5 4 5 4 3 4 2 2 1 2 5 4 3 3 4 5 5 5 7 8 6 1 3 5 5 4 3 2 3
10 8 9 10 12 15 14 17 18 14 9 1 6 5 3 4 5 4 5 8 9 11 8 19 18 20 21 22 26 27 26 24 23 22 21 19 17 18 19 19 19 19 21 21 22 22 22 21 21 22 22 20 17 16 17 18 17 14 12 11 11 10 9 8 8 8 7 5 4 4 6 6 4 5 5 4 2 2 2 3 3 2 3 5 4 5 5 5 6 3 0 3 5 5 4 3 5
9 10 11 11 14 15 16 19 18 10 5 6 4 4 3 6 4 5 7 9 8 11 11 20 22 21 22 21 22 24 23 22 21 20 19 18 17 18 19 20 19 20 22 21 22 22 21 21 21 22 20 19 17 16 17 16 17 15 13 12 11 10 9 9 9 8 8 7 7 7 8 7 6 5 5 5 4 5 2 1 2 2 2 4 5 7 7 5 5 4 1 1 3 5 7 8 9
9 13 15 15 16 13 16 20 14 6 2 6 8 1 6 7 2 5 8 9 7 5 5 21 25 24 24 21 20 20 21 20 19 17 16 15 15 17 18 20 20 20 20 20 20 21 22 21 20 20 18 17 16 16 16 15 16 15 14 12 12 11 9 10 10 8 8 8 8 7 7 7 5 4 3 4 4 4 3 3 3 2 3 5 6 7 8 7 7 7 3 2 4 5 8 11 10
10 12 16 17 18 16 16 17 6 2 4 5 8 8 9 7 5 8 9 12 5 8 8 20 22 22 24 21 19 19 19 18 15 12 13 15 15 17 19 20 20 19 19 19 21 21 21 19 18 18 16 15 14 15 16 15 15 14 14 13 12 11 9 10 10 9 9 9 8 7 7 5 4 3 2 1 2 2 1 3 4 3 4 5 6 4 3 5 6 7 6 6 7 7 9 9 9
14 12 16 17 18 19 19 18 3 1 6 7 10 11 9 7 8 9 9 10 4 18 16 22 20 21 22 19 18 16 15 13 12 12 14 17 18 19 20 20 20 19 20 20 20 20 19 18 17 17 16 15 14 15 16 14 13 12 13 12 11 11 10 10 10 11 10 8 7 7 6 4 4 4 1 1 1 1 0 2 3 3 4 3 4 3 1 2 4 7 6 6 8 8 9 8 8
17 15 15 15 17 17 19 19 7 4 6 9 13 12 10 8 10 9 4 4 9 19 18 21 18 18 18 17 17 14 12 11 11 13 14 16 19 21 19 18 20 20 21 20 19 19 18 18 16 16 16 14 14 15 15 14 13 13 13 12 11 12 11 11 11 10 9 7 7 6 5 4 4 4 2 1 1 2 1 1 3 3 3 2 2 2 2 3 4 6 5 6 8 8 8 8 7
15 16 16 15 17 17 18 18 12 7 7 10 13 13 13 11 12 7 8 12 8 13 12 14 15 16 15 15 15 12 11 10 10 10 10 13 15 17 18 17 19 19 19 20 19 18 17 17 15 15 15 13 14 14 12 13 14 13 13 11 12 12 10 10 11 10 7 6 6 6 5 4 2 3 3 2 2 2 2 1 1 2 2 2 2 2 2 4 5 5 5 7 9 8 9 8 8
13 17 18 18 18 17 14 13 13 11 9 11 13 14 14 13 13 4 12 13 13 15 12 11 6 8 11 13 12 10 8 5 4 4 7 10 6 10 17 17 18 19 19 20 18 17 15 15 15 15 14 13 14 13 12 14 14 13 12 11 12 12 11 10 10 10 8 6 5 5 5 4 1 2 2 2 2 2 3 1 1 0 1 1 2 2 1 2 4 5 6 7 9 9 9 9 9
14 17 16 18 19 17 13 11 12 11 10 13 14 13 14 15 12 3 11 10 13 14 10 11 11 8 7 11 9 7 6 5 6 5 7 11 10 10 17 17 17 19 18 18 17 16 15 13 13 13 12 12 12 11 13 14 13 13 13 12 12 12 12 11 10 9 9 7 6 4 5 4 1 1 2 2 2 3 3 2 1 1 2 0 1 1 2 3 3 3 6 8 9 9 9 10 10
16 15 11 14 17 18 16 14 14 13 11 13 13 12 15 13 5 11 12 11 13 12 12 13 9 4 3 6 7 6 7 8 11 11 12 15 14 12 17 18 18 17 16 17 17 15 13 12 11 10 10 9 9 9 11 12 13 15 14 11 11 12 12 10 8 9 9 8 6 5 5 3 2 2 2 3 3 2 3 3 3 4 4 1 1 0 2 4 4 4 6 8 9 9 10 11 11
15 14 10 10 12 15 17 14 14 15 12 13 12 9 11 6 9 12 12 14 15 11 12 13 7 1 1 6 6 7 7 6 9 12 12 14 14 15 19 20 18 17 17 18 18 15 13 11 9 7 5 2 2 3 3 6 9 11 11 9 10 11 11 10 9 8 8 7 6 6 5 4 4 3 3 4 3 3 3 3 2 4 4 2 1 2 2 2 4 5 6 7 9 9 10 11 12
13 13 10 9 8 11 16 15 15 15 12 14 13 9 7 7 11 8 10 14 16 14 14 13 7 3 5 6 5 5 4 3 4 8 12 15 15 18 22 19 17 18 17 17 16 14 13 11 9 7 6 3 1 2 4 3 3 2 2 5 9 10 9 10 10 9 8 7 6 5 5 4 4 4 4 5 4 4 3 3 4 5 4 4 4 4 3 3 4 5 6 8 9 9 10 11 12
10 11 10 10 9 10 15 18 18 16 12 16 15 8 4 8 9 8 8 11 15 15 15 13 10 6 4 4 5 4 2 3 4 6 7 10 15 19 18 15 16 17 15 15 16 14 14 13 11 10 10 7 4 3 5 4 1 1 2 1 5 9 9 9 10 10 9 7 7 6 6 6 5 5 5 5 4 4 4 4 4 5 5 5 6 5 4 5 6 6 7 9 10 10 11 12 13
10 11 10 11 11 10 12 17 21 20 14 16 17 9 5 9 10 11 10 11 14 13 13 12 10 10 8 7 7 5 4 4 4 6 5 11 17 19 17 16 17 16 14 16 16 14 15 13 10 10 9 6 4 4 5 4 3 3 3 1 1 3 3 7 9 10 10 8 7 7 6 6 6 6 6 5 4 4 6 6 6 7 8 7 8 8 8 9 9 9 10 10 11 12 12 13 14
10 11 10 11 14 12 11 14 20 22 18 16 18 13 6 12 12 10 11 12 13 12 11 10 8 7 6 5 6 7 6 4 5 9 9 14 18 19 19 21 20 17 17 17 15 14 13 12 10 11 10 7 6 6 6 6 5 4 5 5 1 3 3 4 8 10 11 9 8 9 8 9 9 9 8 8 7 7 8 8 8 9 10 9 10 10 10 11 12 12 12 12 12 13 13 14 15
12 11 10 10 13 14 14 13 17 22 21 17 17 16 8 15 14 10 11 10 11 12 9 9 8 8 7 4 3 6 6 6 7 11 12 15 18 19 18 20 19 18 19 18 16 14 12 12 12 11 10 9 8 7 8 7 5 5 7 7 4 1 2 4 10 13 13 11 11 11 11 12 12 12 12 11 11 10 9 10 10 11 11 11 12 11 12 13 13 14 14 14 15 14 14 14 16
15 14 12 12 12 13 17 15 16 22 19 17 17 15 12 15 12 10 11 9 9 11 10 9 8 7 6 6 5 3 5 6 9 14 15 16 17 16 15 17 18 18 19 18 17 14 12 12 11 10 10 10 9 8 9 8 7 9 11 10 5 1 1 7 12 14 13 13 13 13 13 13 13 14 13 13 13 13 13 12 12 13 13 13 14 14 15 15 15 16 16 16 17 16 15 15 16
17 15 14 16 14 11 17 16 17 20 15 16 17 12 15 14 11 11 10 10 10 10 11 10 8 7 6 7 7 6 6 7 9 14 17 18 17 15 14 15 17 17 17 17 17 14 12 12 10 9 9 10 10 9 9 8 8 9 12 10 3 2 2 10 14 14 14 14 14 14 14 14 14 14 14 13 13 14 15 15 15 15 15 15 15 15 16 15 15 18 17 17 17 18 17 16 19
17 15 13 14 14 12 17 16 18 20 14 14 13 12 15 14 12 11 9 10 10 10 12 11 11 11 8 8 9 8 8 8 9 13 16 17 16 15 15 15 14 15 15 16 16 13 11 13 11 9 10 11 10 9 9 9 8 9 10 9 5 1 4 10 13 14 14 14 14 14 14 14 13 14 13 11 10 12 14 15 16 16 15 15 14 14 16 15 16 18 18 18 17 17 17 18 22
15 13 12 11 13 12 15 17 18 19 11 10 16 14 11 13 13 10 9 8 7 8 10 11 11 12 10 8 9 8 8 8 8 11 15 16 17 16 16 15 14 15 16 16 15 13 12 13 12 11 12 12 11 11 11 11 10 10 10 11 9 5 6 10 12 13 13 13 14 13 12 12 12 13 13 12 12 13 13 14 15 15 15 15 14 15 16 16 16 17 17 18 18 17 17 18 20
14 12 11 10 14 14 12 16 19 18 10 8 15 12 8 11 10 9 10 8 6 7 8 9 9 10 10 9 10 9 10 11 10 11 13 15 17 16 15 14 14 16 17 17 18 17 15 14 14 14 14 13 13 14 14 13 13 12 11 11 9 5 6 9 10 12 12 13 14 13 12 12 12 13 14 13 14 14 13 14 14 14 15 15 15 16 16 16 16 16 16 17 16 16 16 17 17
15 16 13 10 15 18 12 10 15 15 12 11 13 9 5 8 8 9 9 9 9 8 8 9 10 10 8 8 10 9 9 12 13 13 13 14 16 16 14 12 14 19 20 20 20 19 19 18 17 17 15 15 16 17 16 15 16 15 13 11 7 6 6 7 9 11 11 11 13 13 12 12 12 13 14 14 14 14 13 13 12 13 14 14 15 14 14 14 14 14 15 15 14 14 14 15 15
14 17 18 14 16 21 15 12 13 9 11 13 14 7 3 5 7 9 9 8 10 10 10 11 11 12 10 9 11 10 9 12 14 15 15 15 16 17 16 13 15 19 21 21 21 20 21 21 20 20 18 16 17 16 14 14 14 13 14 12 6 6 7 7 9 11 11 11 11 10 10 11 12 12 13 13 13 13 12 12 11 11 11 13 13 11 12 13 13 13 14 14 14 13 14 14 14
10 14 18 16 15 21 19 16 13 8 9 12 14 7 3 3 6 9 9 8 10 11 10 11 11 13 11 9 11 11 10 12 14 15 15 16 17 18 17 15 15 18 19 21 22 21 22 24 23 22 19 16 15 13 11 12 12 10 11 9 6 6 9 10 10 11 10 11 10 9 8 9 11 11 12 12 12 12 11 11 11 11 11 12 12 11 13 13 13 13 13 14 14 14 15 15 15
9 13 17 19 18 21 17 14 10 8 8 11 13 10 4 4 7 9 10 9 10 12 11 11 11 13 13 10 10 11 10 12 14 14 15 16 17 19 17 16 16 17 18 19 21 21 23 24 24 22 20 17 16 14 12 12 12 10 10 10 8 9 10 10 10 10 9 10 10 10 9 9 10 11 11 12 11 11 11 12 12 11 11 12 12 12 13 13 13 13 14 14 15 14 16 15 15
9 14 19 19 17 14 15 13 9 10 9 9 13 13 7 5 7 9 11 10 11 13 14 13 11 12 10 7 6 5 8 12 14 13 14 16 18 19 18 17 17 16 16 18 21 22 23 23 22 21 20 18 18 17 16 14 11 10 10 11 12 10 9 9 10 9 9 9 9 10 10 10 11 11 11 11 11 11 11 12 12 12 12 12 12 12 12 13 13 14 14 15 16 15 15 15 15
12 17 20 16 11 9 12 13 10 10 9 9 13 14 9 5 8 10 9 9 11 12 12 13 13 10 8 9 7 4 6 9 14 13 14 17 19 20 19 19 19 17 17 19 21 22 23 23 21 20 19 19 18 16 15 14 11 11 11 10 11 10 9 8 9 9 8 8 8 8 9 10 10 10 11 11 11 11 12 12 12 13 13 13 13 13 13 14 14 14 14 14 15 16 15 15 15
16 16 16 13 9 7 9 11 9 8 8 11 14 16 12 7 8 11 10 12 14 13 12 12 13 12 9 9 9 6 7 8 13 13 14 18 20 21 21 20 19 19 19 20 22 23 23 23 22 22 21 18 16 15 14 12 11 12 12 10 10 10 9 8 9 9 8 8 9 9 8 9 9 10 10 11 12 12 12 13 13 13 14 14 14 14 14 14 13 14 14 14 14 15 15 14 15
17 12 10 10 8 4 4 6 6 6 7 12 15 17 16 9 7 11 13 15 16 15 15 16 15 14 13 10 9 8 9 10 14 13 14 16 18 20 21 20 20 20 21 20 22 23 23 23 22 22 21 18 17 15 13 11 11 11 11 10 9 9 9 8 8 8 8 8 9 9 9 8 9 9 10 12 13 12 13 13 14 14 14 15 15 14 14 14 13 14 14 14 14 15 15 14 15
16 12 10 10 8 5 5 5 5 7 8 11 14 16 14 9 8 15 17 17 18 17 15 17 18 16 14 13 12 12 11 13 14 13 13 13 14 18 21 21 21 21 22 21 22 23 23 23 22 22 20 17 16 15 13 11 11 10 10 10 9 9 9 8 8 8 8 8 9 9 9 8 9 9 10 12 12 13 13 14 14 14 14 14 14 14 14 14 14 14 15 14 14 15 15 14 14
15 13 11 10 8 7 8 7 6 8 9 12 15 14 11 7 7 18 21 18 20 19 15 16 17 17 16 15 15 14 14 15 13 13 12 10 12 18 21 21 20 21 22 21 21 22 22 22 22 21 19 16 15 15 13 11 10 10 10 10 9 10 10 9 9 9 8 9 10 9 9 9 9 10 10 11 11 12 13 13 13 14 14 14 14 14 14 14 14 14 15 14 14 15 15 15 14
14 13 11 10 9 8 7 7 8 8 9 12 14 10 7 6 5 13 18 17 17 18 16 15 13 14 16 15 15 15 15 14 13 13 12 11 15 19 20 21 21 22 23 21 21 20 21 23 21 19 18 16 15 14 12 11 10 10 10 10 11 11 11 11 11 10 9 10 10 10 10 10 10 11 11 11 11 11 12 13 13 13 13 14 14 14 14 14 14 14 15 15 14 14 15 15 15
11 12 11 9 10 8 5 7 6 4 6 8 8 3 1 2 5 9 13 14 15 16 16 18 14 13 14 13 13 13 13 12 12 12 11 12 16 18 18 20 22 23 23 22 21 21 23 23 20 19 18 15 14 13 12 11 11 11 10 11 11 12 12 12 11 11 11 11 11 11 11 11 11 11 11 11 11 12 12 12 13 13 13 14 14 14 14 14 14 14 15 15 15 14 14 15 15
8 11 12 10 12 10 5 7 4 1 4 6 6 3 5 5 5 9 14 15 16 16 17 20 18 18 15 13 13 13 13 13 11 11 11 12 16 18 19 21 22 22 23 22 21 22 24 22 20 19 17 15 15 13 12 12 12 12 12 12 12 12 13 13 13 13 12 12 11 11 12 12 11 11 11 11 11 12 12 12 13 13 14 14 14 14 14 14 13 13 14 15 15 14 13 14 15
8 10 11 10 12 11 6 6 4 3 6 5 8 9 7 7 5 8 15 16 14 15 19 20 18 18 15 13 14 14 13 13 12 12 12 14 18 20 21 22 21 21 22 22 23 23 23 21 20 19 17 16 15 14 14 14 13 13 13 13 14 13 14 14 14 14 13 12 12 12 12 12 11 11 11 11 11 12 12 12 12 13 13 14 14 14 14 13 13 13 14 14 14 14 13 14 15
13 11 11 9 9 9 6 5 5 7 7 4 9 13 9 8 7 8 14 16 14 12 13 18 19 17 15 13 14 15 15 12 11 12 11 12 18 21 22 22 22 22 22 23 23 23 22 22 20 18 17 16 15 14 15 14 14 15 15 15 15 15 14 14 14 14 14 14 14 13 13 12 12 11 11 11 11 11 12 12 12 12 13 13 13 13 13 13 14 13 13 14 14 14 14 14 15
17 13 11 9 7 8 7 5 5 6 6 5 9 11 8 7 9 13 14 14 18 14 9 14 18 17 15 13 13 14 15 12 10 12 11 12 18 23 23 24 24 24 24 23 22 21 21 22 21 19 18 16 15 15 15 15 15 16 16 16 16 15 14 14 14 15 15 15 14 13 13 13 12 12 12 12 11 11 12 12 12 13 13 13 13 13 13 13 13 13 13 14 14 14 14 14 14
13 12 11 10 7 7 8 7 6 6 6 6 7 7 6 5 8 15 16 14 20 19 14 13 15 16 16 15 14 13 14 12 11 12 12 13 19 23 24 24 25 24 23 22 21 20 20 20 20 19 18 17 16 16 16 16 16 16 17 17 16 15 15 15 15 15 16 15 14 14 13 13 13 13 12 12 12 12 12 12 13 13 13 13 13 13 13 13 13 13 13 13 13 13 14 13 14
11 8 9 11 9 8 9 8 7 7 6 6 6 5 5 3 6 13 13 13 18 20 18 15 15 17 17 15 15 14 14 12 11 12 12 14 18 22 24 24 24 23 23 22 21 20 20 20 20 19 18 17 17 17 17 17 18 18 17 16 16 15 15 16 16 16 15 15 14 14 13 13 13 13 12 12 12 12 12 13 13 14 14 14 13 13 13 13 13 13 12 13 13 13 13 13 13
Wind_Direction
314 315 318 308 303 303 295 282 281 270 265 275 273 272 285 297 293 294 305 311 302 47 77 27 359 355 325 343 81 74 40 42 43 40 107 139 146 142 118 111 118 118 123 131 130 128 130 131 127 127 126 125 126 125 126 125 126 127 126 123 123 122 119 116 114 110 107 107 106 104 101 99 98 97 95 95 93 94 97 98 98 96 99 100 99 101 98 95 89 82 76 66 61 60 58 56 55
317 315 313 301 288 288 301 301 287 280 269 274 264 262 267 281 286 280 286 282 283 44 75 357 337 339 310 6 74 74 53 47 71 88 116 136 130 123 124 121 120 120 124 127 127 130 132 134 130 129 128 125 125 122 121 121 122 123 123 123 125 124 121 117 115 113 112 111 109 107 104 103 100 98 98 98 96 98 100 100 100 98 99 97 98 101 99 95 87 79 73 65 59 57 55 54 54
316 315 312 306 286 264 281 275 268 276 272 273 269 267 253 256 264 265 276 282 301 20 42 335 325 315 307 28 57 67 76 60 78 96 123 133 124 121 129 124 122 122 123 125 129 133 135 137 133 130 130 126 124 121 120 119 120 122 124 125 126 126 124 121 120 119 117 114 110 110 107 105 102 99 99 100 101 102 103 103 101 99 97 95 98 99 94 88 83 77 73 67 59 53 50 52 54
312 310 297 299 302 284 281 266 264 273 266 265 267 267 261 261 258 257 266 279 317 21 6 324 316 321 357 61 84 77 86 80 88 108 121 124 122 127 129 123 123 124 124 127 130 136 138 138 135 132 130 127 123 119 118 118 119 122 124 126 126 128 128 126 124 121 118 115 113 112 110 106 104 101 99 101 102 104 106 105 102 100 98 99 101 99 93 89 87 80 73 65 59 51 43 50 57
304 296 278 275 295 301 289 282 275 268 265 271 269 263 268 272 266 268 264 157 70 42 333 318 290 355 57 68 97 95 96 103 103 110 116 119 122 128 128 125 127 128 128 126 132 138 138 138 135 133 130 126 121 118 117 116 117 120 122 125 129 131 130 129 126 122 119 118 117 114 111 108 105 103 101 101 103 105 107 107 104 101 101 102 102 98 92 91 91 80 70 62 56 49 42 51 58
285 278 261 250 267 297 283 268 266 265 269 278 281 276 278 282 284 292 283 174 113 141 201 276 268 338 80 70 71 91 116 126 117 114 118 123 127 130 131 135 136 130 127 128 134 136 137 139 136 133 128 124 122 120 119 119 120 121 124 128 131 132 130 130 127 123 121 121 119 115 111 109 107 106 105 104 104 105 106 107 105 103 101 101 98 93 86 84 88 77 66 55 48 49 47 54 61
273 276 257 238 247 254 255 256 259 260 263 269 271 272 270 274 279 280 273 260 273 212 193 229 261 338 102 107 76 66 80 115 124 121 122 129 131 134 139 140 133 123 122 127 130 134 138 139 136 132 127 126 125 125 125 124 125 126 128 131 132 132 132 131 128 125 124 123 120 116 113 112 110 108 107 105 104 104 104 104 103 105 100 98 98 91 81 77 86 81 64 51 53 60 60 62 67
260 269 275 267 268 251 254 259 258 258 259 259 261 269 268 269 270 272 280 309 359 286 277 270 126 10 106 106 93 72 79 99 114 122 127 134 134 141 142 128 122 118 119 127 133 136 137 137 133 129 128 128 128 129 130 129 129 129 131 133 133 134 134 132 129 126 125 123 119 118 116 114 111 107 108 106 105 104 101 98 94 91 86 88 91 85 77 75 87 87 65 55 66 72 71 71 70
243 240 255 266 266 264 261 261 262 265 267 264 260 261 263 266 263 264 276 287 282 279 286 287 237 122 108 99 98 92 89 105 117 125 130 135 139 145 138 124 123 122 121 133 138 135 135 136 131 128 130 131 131 133 132 131 131 131 134 135 135 136 135 133 131 129 125 124 121 119 115 112 109 106 105 105 106 106 102 97 88 81 81 83 82 79 74 77 92 92 71 65 77 81 77 74 70
231 229 243 255 257 262 259 259 262 264 265 266 264 259 257 252 249 251 260 273 295 295 287 286 254 119 115 110 109 116 118 120 123 127 133 135 139 145 140 128 125 123 125 133 134 132 137 135 130 130 132 134 135 135 135 135 133 135 137 136 137 136 136 134 132 128 125 124 121 117 112 109 106 104 103 102 101 101 98 90 81 74 73 73 76 78 76 83 98 98 78 72 82 85 81 77 70
237 220 233 251 253 259 259 262 260 263 263 261 263 263 261 251 248 254 252 298 309 286 285 287 230 123 114 107 107 126 134 133 132 134 137 136 139 149 144 130 125 128 131 132 132 135 137 134 133 133 133 137 138 139 140 138 137 140 140 139 138 137 136 134 131 128 126 122 118 113 108 105 101 99 97 96 93 88 85 76 70 63 58 59 70 86 89 94 106 107 86 76 82 85 86 81 74
245 230 232 244 244 253 259 264 265 268 269 269 270 267 267 260 244 244 251 263 270 268 270 276 191 120 117 113 117 135 139 140 137 139 140 141 147 146 137 128 129 133 135 135 136 137 136 136 134 135 138 140 140 141 142 140 141 143 142 142 140 139 137 134 133 129 127 122 117 111 105 99 94 91 86 85 84 83 81 74 67 59 56 55 62 111 131 116 119 122 98 79 77 81 90 86 82
237 237 242 249 248 253 255 261 265 267 269 273 274 276 278 270 215 224 257 259 269 276 263 265 191 118 116 111 126 140 139 141 138 142 145 148 152 142 133 133 136 136 138 138 139 140 138 138 136 138 142 139 138 139 142 143 144 143 143 144 142 141 138 137 134 130 127 120 113 105 97 91 87 79 72 71 74 81 80 76 70 61 59 57 63 101 147 144 137 136 116 90 76 76 90 94 94
231 237 245 254 255 255 256 259 263 265 266 267 272 306 318 334 95 127 232 241 254 268 264 262 143 110 114 119 133 146 142 146 143 147 151 149 149 142 136 136 139 139 141 142 142 142 139 139 138 138 138 137 138 140 144 146 145 144 142 143 145 142 139 138 135 132 125 116 107 98 91 88 85 74 69 61 62 70 65 63 60 56 53 54 58 83 141 157 154 150 136 109 83 73 88 104 106
228 239 242 252 256 254 256 255 260 265 265 270 296 71 80 83 124 169 197 239 263 273 264 202 153 122 143 146 147 155 148 150 148 147 145 142 143 140 136 136 140 143 145 147 145 143 140 140 139 138 137 136 137 139 145 147 146 144 142 145 145 143 141 140 137 132 122 114 104 97 94 93 83 69 68 56 59 60 44 44 40 43 43 46 51 59 122 162 167 166 156 134 102 83 94 120 127
224 242 242 246 249 248 251 254 262 265 263 260 85 91 124 129 178 196 191 238 265 269 271 215 184 151 157 155 145 149 148 148 144 138 134 136 141 137 137 142 146 146 146 149 148 143 142 143 142 140 139 138 137 139 143 147 150 146 144 148 146 144 143 140 136 129 122 114 102 99 93 90 70 60 63 48 62 57 35 37 32 31 34 44 51 46 42 157 181 180 175 163 132 110 108 142 155
219 232 242 243 243 246 245 248 252 258 265 216 149 142 191 176 185 168 176 245 269 257 246 44 52 126 141 138 135 142 144 142 135 132 133 140 145 141 144 149 147 145 147 148 146 142 143 146 145 142 141 140 141 141 143 149 153 151 149 151 147 144 143 143 139 128 125 118 105 97 82 81 57 49 45 27 62 45 24 24 26 26 29 42 51 48 40 27 230 199 189 186 175 154 160 197 195
221 220 236 241 238 241 242 249 250 254 263 187 161 137 133 221 237 148 175 212 244 255 148 77 64 91 110 120 130 139 141 140 137 136 140 149 154 149 152 153 147 146 145 142 143 144 145 148 146 144 143 141 142 143 149 154 151 153 155 153 148 147 151 148 143 134 130 120 99 83 72 80 84 56 42 51 103 18 16 18 22 29 27 34 41 43 41 34 16 233 211 204 197 207 244 246 256
223 222 227 235 239 242 241 249 248 248 251 185 132 106 156 252 275 236 222 220 213 237 135 97 91 95 105 121 132 139 141 143 144 143 147 157 161 156 157 152 147 146 143 140 143 147 147 149 147 145 144 141 141 142 147 148 146 154 157 154 153 156 160 151 146 146 137 120 99 89 91 100 142 137 117 119 146 337 19 39 47 45 38 36 29 22 29 33 28 0 228 227 216 230 247 237 263
219 227 232 230 236 246 246 247 247 257 279 318 93 111 194 239 251 252 250 249 227 222 157 115 116 119 122 131 136 140 145 150 151 151 153 161 164 157 154 147 146 146 142 141 142 147 148 148 147 145 144 142 140 140 142 142 147 159 156 157 162 160 163 155 152 151 143 145 145 142 132 129 156 172 171 145 176 262 21 42 35 22 27 23 10 4 3 14 18 20 212 242 235 238 253 242 238
211 221 236 235 232 241 248 251 252 268 320 316 329 103 240 257 230 245 245 250 236 227 190 139 133 133 135 139 144 147 149 153 155 156 155 161 164 155 150 145 146 147 142 141 142 146 146 145 147 145 148 147 142 145 147 147 156 163 159 162 164 159 160 156 159 157 155 164 164 156 147 155 170 170 163 152 191 213 195 314 330 306 308 324 315 323 323 324 339 329 24 0 265 249 255 258 248
216 223 233 241 244 241 241 248 252 261 239 265 281 237 266 276 269 259 254 258 247 258 174 141 139 138 142 145 149 151 153 157 157 156 153 157 160 151 150 144 139 142 140 140 141 143 144 144 146 146 153 154 148 151 152 156 165 164 162 166 167 170 168 160 164 163 167 174 167 159 150 160 169 168 171 154 192 204 180 229 254 266 259 264 270 295 303 290 299 291 269 310 312 287 269 265 259
221 229 231 234 246 254 257 263 275 300 244 241 264 265 273 284 277 257 252 255 275 24 82 132 138 140 143 145 147 154 157 155 147 148 154 160 163 153 149 142 138 143 140 138 138 140 143 144 148 151 154 155 156 155 152 162 170 161 161 168 170 172 169 162 163 160 175 184 169 153 142 154 159 158 213 165 178 201 132 227 230 237 247 246 244 259 261 247 279 289 268 274 292 285 276 271 261
223 232 235 234 239 246 260 271 289 149 255 260 263 265 264 263 264 259 260 253 73 61 92 128 134 137 138 142 147 151 144 139 140 151 167 169 163 152 145 142 141 141 136 135 136 139 144 146 153 156 153 158 158 151 154 166 167 159 164 169 166 163 163 162 158 161 177 177 156 146 143 158 147 138 230 305 189 223 352 264 252 249 265 266 243 242 197 227 288 302 283 275 286 279 272 272 266
224 231 236 240 240 239 247 257 249 170 229 249 256 258 248 244 258 259 304 313 95 88 103 121 126 129 134 143 143 138 129 136 150 161 176 168 155 148 145 144 139 136 133 134 135 139 145 149 156 157 157 161 155 154 162 162 158 163 167 165 161 159 164 161 156 165 175 165 152 151 148 147 133 133 172 262 254 248 216 282 305 286 288 306 273 300 354 338 321 308 291 281 292 294 289 285 284
220 228 235 240 244 240 237 240 228 207 222 233 237 241 242 243 250 245 47 28 64 91 92 106 123 131 135 138 129 124 128 139 153 164 163 146 147 145 139 139 135 134 132 131 133 137 144 151 157 158 158 158 158 164 163 155 157 163 163 163 160 158 163 160 153 156 161 166 159 150 147 146 139 135 145 206 255 275 234 249 299 255 286 351 332 348 18 340 324 307 291 286 292 297 300 297 297
221 225 231 235 244 246 240 236 223 219 230 231 232 234 239 239 236 222 61 44 52 63 45 36 63 118 118 106 100 105 106 103 127 135 105 109 156 147 134 137 135 134 132 131 133 137 150 156 157 159 158 158 166 169 157 156 159 160 163 165 162 159 156 152 152 152 153 168 173 151 143 149 183 150 146 209 205 222 237 311 8 123 52 4 318 349 27 296 286 287 291 291 290 287 295 297 290
232 233 232 225 236 246 236 233 231 229 229 227 236 239 240 239 227 119 71 76 77 79 73 45 21 7 53 85 98 103 94 72 75 99 126 146 181 159 136 137 132 131 132 134 135 140 154 156 154 157 158 164 171 165 157 158 159 162 162 160 162 160 155 153 157 158 148 150 161 147 137 147 177 147 155 187 170 185 180 135 162 128 88 228 265 339 286 280 279 284 295 294 288 284 287 292 292
235 238 242 225 230 239 227 220 226 229 227 220 227 240 240 235 181 95 87 97 96 99 102 88 65 352 350 92 109 106 114 134 132 150 170 162 165 150 130 130 131 131 131 131 133 141 149 147 149 152 156 170 170 160 159 159 165 169 161 157 164 158 154 152 149 152 145 143 148 137 132 131 98 77 106 132 129 139 131 129 175 154 124 176 244 37 287 294 309 301 299 301 299 299 296 295 300
234 227 229 230 228 232 222 212 219 223 223 211 206 232 236 197 105 99 104 111 109 100 93 94 104 166 27 71 85 107 129 156 153 160 160 145 148 140 127 130 135 129 124 129 136 144 140 132 133 131 133 131 117 123 128 155 175 175 159 154 156 148 149 152 148 148 140 137 133 125 127 110 86 68 80 111 102 88 94 71 57 84 88 58 37 48 344 314 316 310 313 315 311 312 310 308 309
229 224 219 226 230 228 214 205 215 219 215 205 202 230 225 120 93 96 107 120 114 98 94 99 103 57 34 52 64 96 110 35 86 143 149 143 144 136 131 135 134 125 125 133 136 132 123 123 130 140 154 138 94 48 53 111 208 253 153 152 154 151 153 155 149 142 134 130 120 116 118 99 83 72 69 86 81 69 71 63 43 33 37 35 36 37 4 357 356 339 338 332 323 324 321 316 314
217 222 218 215 226 231 212 201 211 215 208 205 211 226 183 120 104 101 102 110 104 100 103 103 112 115 107 111 88 77 89 62 102 167 163 136 126 121 118 112 113 121 125 124 116 112 123 140 152 157 164 164 164 138 94 116 175 343 344 321 166 164 163 155 144 136 133 123 108 96 91 85 76 71 65 70 81 76 62 62 50 27 19 15 16 23 18 11 2 351 348 340 331 329 324 320 320
209 214 219 211 212 230 221 199 201 210 210 206 211 216 153 133 120 107 107 105 102 111 118 119 134 147 150 146 135 133 139 124 152 198 161 117 113 106 103 108 121 126 117 114 119 130 141 146 146 139 143 147 128 112 107 118 120 108 115 73 235 224 196 148 133 126 117 102 92 84 79 79 67 64 63 59 64 65 60 48 36 33 28 23 24 25 23 17 8 358 353 347 339 332 326 324 325
206 207 217 216 209 223 231 201 190 199 211 209 204 214 177 134 131 118 119 121 117 124 129 133 140 138 138 141 142 138 140 139 163 188 155 114 112 115 125 139 141 132 124 128 132 136 138 135 137 135 135 131 106 95 101 116 115 101 119 122 121 297 320 98 112 108 99 90 87 78 70 69 61 56 54 53 52 50 53 43 35 39 34 31 35 30 22 17 12 3 356 350 345 339 333 330 328
201 199 205 220 214 215 230 216 181 187 208 212 201 210 182 129 135 133 126 130 127 131 139 144 145 146 144 130 112 132 161 170 165 170 138 107 121 129 133 140 137 135 137 134 123 118 126 133 137 135 130 120 108 109 103 110 127 117 114 98 69 5 2 81 99 95 88 83 82 76 68 65 58 53 51 51 53 50 47 43 40 37 32 31 31 31 24 15 10 5 -0 355 349 346 342 337 335
201 199 199 214 220 210 228 227 179 182 202 208 208 205 161 130 138 138 131 140 131 129 138 144 147 153 142 106 91 141 179 167 155 152 126 109 126 131 132 139 137 139 137 127 118 120 130 133 122 114 122 114 108 122 108 103 122 122 113 89 45 289 120 91 90 85 81 77 74 68 64 60 53 49 47 48 50 49 44 42 42 37 36 35 30 30 26 18 18 14 7 3 357 353 352 349 349
207 201 199 212 225 211 225 224 177 177 196 207 214 188 143 138 139 134 135 148 145 138 144 154 152 150 147 122 125 151 148 146 157 147 127 116 126 135 139 138 134 133 130 125 125 125 130 130 114 103 117 111 110 125 112 105 119 114 108 95 57 268 105 87 83 78 75 73 68 63 60 56 52 47 42 43 48 47 43 41 40 37 36 37 33 31 27 22 23 19 10 5 3 360 355 355 359
220 209 202 208 224 218 222 218 170 170 200 207 186 141 135 144 131 128 142 155 162 157 154 165 161 150 153 138 138 144 131 145 160 142 129 124 133 145 140 135 138 134 126 125 127 125 124 124 119 113 117 115 116 121 103 100 113 105 103 103 97 80 80 81 78 76 75 73 68 63 61 58 52 46 39 36 40 43 44 41 38 34 32 33 32 30 25 21 22 20 10 2 0 360 355 354 360
233 220 210 203 219 223 221 212 174 169 205 194 150 136 144 140 125 136 160 167 172 167 158 161 157 151 157 151 145 146 140 152 155 140 135 136 144 149 143 143 145 133 124 123 121 120 122 122 119 114 115 114 112 111 106 108 112 105 102 103 99 80 73 82 81 79 79 76 70 62 58 55 47 42 37 32 33 39 42 41 37 34 31 29 28 24 19 20 22 18 12 7 2 357 354 352 357
237 234 221 204 209 218 223 209 179 165 194 180 142 142 141 128 133 156 173 181 169 160 157 152 151 155 160 153 143 144 146 155 158 149 142 146 153 150 147 151 141 127 124 124 124 125 128 128 120 111 107 104 102 107 115 117 109 101 97 95 98 100 93 96 93 84 77 70 64 56 51 49 46 43 40 37 36 38 39 38 36 33 31 31 30 24 18 20 20 14 12 13 7 359 351 347 353
230 237 231 210 205 219 228 196 166 160 188 177 131 128 135 137 160 169 174 184 162 154 165 159 156 158 156 146 144 147 152 163 167 157 149 152 152 146 146 152 143 133 128 130 135 135 133 127 116 110 106 105 107 110 116 118 109 104 103 99 107 132 120 104 92 79 72 66 57 53 55 53 49 45 40 37 36 36 34 31 32 32 33 34 33 28 24 22 19 14 13 12 10 3 351 345 352
223 227 231 221 205 216 210 163 155 171 199 174 130 128 175 161 178 169 165 179 166 163 174 174 167 157 159 161 155 158 170 174 168 159 155 151 142 138 141 144 142 135 132 135 136 133 128 120 114 114 112 113 115 117 121 120 113 113 116 119 150 159 115 89 85 79 75 75 64 55 60 54 47 43 38 34 32 33 30 25 30 36 38 35 32 35 33 27 24 20 18 16 14 8 358 352 356
218 213 230 234 218 222 206 169 170 193 210 181 152 159 184 172 200 177 163 177 174 170 173 180 173 156 165 182 165 165 182 176 162 155 152 145 136 134 133 132 129 124 127 133 130 124 120 116 113 114 113 114 112 112 116 111 107 113 120 131 175 154 107 87 87 86 83 82 72 57 49 42 42 42 38 36 34 36 35 35 41 46 47 39 36 42 38 33 31 27 24 23 20 17 14 9 3
214 200 222 234 237 233 202 171 185 205 219 204 187 194 182 177 202 173 165 179 180 178 176 177 176 166 173 183 161 162 182 172 156 151 146 140 135 133 130 126 121 116 120 125 121 117 116 113 110 111 113 112 104 99 94 88 89 97 110 118 121 113 103 96 95 91 87 85 77 65 49 38 45 49 45 42 42 44 44 44 47 50 52 47 44 45 41 38 36 32 30 27 27 27 23 20 14
210 199 214 231 247 236 190 177 197 206 224 225 205 204 199 189 189 172 171 182 187 187 179 173 180 179 165 141 127 167 197 170 152 148 143 135 132 130 127 121 115 112 113 114 114 115 112 107 104 106 107 102 96 95 91 87 89 100 114 118 113 108 106 104 101 91 86 87 81 72 63 53 56 57 53 49 46 47 48 46 46 49 52 49 46 44 43 42 37 35 33 29 31 32 29 27 22
208 203 210 222 241 235 207 202 201 203 224 231 207 199 208 204 176 174 177 186 195 192 184 179 177 173 149 132 141 200 225 167 144 142 137 130 128 127 123 119 116 114 112 111 113 113 110 106 101 98 98 95 97 102 101 99 104 116 121 119 115 114 115 115 110 105 104 105 96 82 72 66 63 58 53 52 49 47 49 48 46 47 49 50 46 44 47 44 37 37 37 33 35 34 31 31 25
216 208 200 208 222 237 230 210 196 202 227 234 214 198 208 218 179 175 184 193 192 183 184 179 162 154 153 152 151 178 219 170 140 139 135 129 127 126 125 122 120 120 117 112 113 114 113 110 104 99 97 95 97 101 103 105 110 115 115 115 120 123 126 134 133 131 129 116 103 93 82 74 70 62 54 52 51 49 49 50 48 47 48 50 48 44 47 47 39 39 41 38 38 35 32 32 27
222 217 186 197 211 225 238 210 195 208 222 226 218 207 212 223 191 175 181 190 187 183 182 169 157 157 155 156 159 177 199 164 139 138 134 130 129 130 129 126 127 128 123 118 115 115 115 111 106 105 101 98 101 104 105 110 113 113 115 117 124 131 135 141 139 132 125 113 103 97 91 82 74 66 58 52 50 50 49 49 49 47 46 47 48 45 45 49 44 40 43 42 39 36 33 32 29
223 225 194 194 195 184 204 210 208 223 229 225 218 213 216 227 202 177 178 184 183 187 183 159 156 160 152 161 177 178 172 150 140 142 137 133 134 135 134 130 132 130 125 123 121 119 118 112 107 107 104 102 107 113 113 115 116 116 122 124 124 128 129 129 122 110 105 102 99 98 94 87 78 69 61 55 50 48 49 48 48 47 46 45 47 47 45 49 48 43 44 44 40 36 33 33 31
216 220 201 195 191 181 192 201 208 221 230 230 224 219 219 232 193 170 176 183 178 180 177 152 150 154 154 170 175 161 151 143 140 144 141 139 141 139 137 133 131 129 127 127 127 127 121 112 109 110 110 112 113 114 115 116 118 119 125 129 127 124 120 117 114 109 107 103 101 103 98 91 84 73 65 59 53 50 50 49 50 49 48 47 48 49 47 48 49 46 45 43 41 38 35 35 33
211 214 200 199 205 189 187 201 206 215 223 221 218 219 227 228 168 162 176 179 175 177 165 140 132 144 154 166 162 148 145 143 143 146 145 143 142 140 136 131 131 132 132 129 130 129 120 113 116 117 118 120 116 114 118 118 120 122 124 127 125 123 119 115 113 114 115 113 110 106 98 93 88 77 70 64 60 57 53 51 51 49 49 49 49 50 48 48 50 48 45 43 42 39 36 35 33
205 206 194 200 212 193 181 206 201 217 236 216 199 197 355 171 146 158 170 168 179 185 154 131 134 153 158 156 150 144 142 144 147 147 145 142 139 136 132 129 133 135 134 135 135 130 121 120 123 121 120 120 116 116 119 119 121 122 123 123 121 122 121 118 118 119 118 118 113 105 97 93 88 80 74 67 63 61 57 53 50 49 50 50 49 49 48 48 50 48 43 40 41 39 36 34 32
190 198 199 203 215 206 187 202 182 78 243 209 184 162 96 121 153 153 159 171 187 178 140 130 146 161 161 153 144 143 146 149 150 146 141 138 137 136 134 135 139 142 139 137 132 124 123 125 124 123 122 119 118 118 118 119 120 119 119 121 120 121 122 122 123 122 119 116 109 101 96 92 86 82 76 70 65 62 59 56 51 49 48 48 49 48 47 48 48 48 43 39 39 38 37 35 32
191 186 202 207 214 215 200 199 186 188 225 202 193 202 164 156 184 159 168 181 175 150 132 133 147 155 156 154 148 147 148 149 146 142 140 140 143 143 142 142 143 141 135 130 126 125 126 128 127 128 127 123 122 122 121 122 122 119 121 123 124 124 123 125 124 122 118 113 106 100 95 91 86 82 78 73 68 63 60 57 53 50 47 46 48 46 47 48 46 47 44 40 39 39 39 36 33
213 184 201 216 213 206 192 199 203 197 215 214 206 211 194 181 184 168 181 177 144 128 137 144 152 155 151 152 155 151 147 145 143 142 143 145 148 148 146 144 140 135 132 129 131 133 132 129 129 130 128 128 129 129 129 127 127 127 128 127 126 125 125 125 122 118 114 107 103 100 96 92 89 84 79 76 71 65 61 58 54 53 49 46 46 46 46 46 45 45 44 40 38 38 39 37 33
215 191 197 223 228 208 188 190 208 201 205 215 215 211 198 193 174 167 187 172 137 137 162 160 159 157 149 150 159 154 146 147 148 146 149 150 151 152 148 144 140 135 134 135 136 135 131 128 129 130 129 130 131 132 131 130 132 132 129 126 126 125 124 121 118 114 109 104 102 99 95 92 87 83 80 77 72 67 63 60 56 53 51 47 45 46 46 46 46 44 41 40 38 37 39 37 34
207 195 192 210 219 213 202 194 203 217 209 203 223 216 195 206 173 167 184 169 144 150 161 160 157 150 147 152 156 154 151 152 156 154 153 152 152 150 146 142 139 135 136 138 135 133 132 129 129 130 130 131 131 131 131 131 131 129 126 125 124 122 119 115 112 109 105 102 100 98 95 92 87 83 80 76 73 69 64 60 57 53 51 48 45 45 45 44 44 43 42 40 37 37 38 35 34
198 206 200 203 204 204 207 196 193 216 217 210 231 222 202 213 160 164 180 163 148 151 148 148 155 150 150 157 155 154 155 155 159 156 152 152 149 146 143 141 139 138 140 140 138 139 137 132 132 133 133 134 132 132 132 130 128 126 125 124 121 118 115 112 109 106 104 102 99 97 95 91 87 82 79 76 73 70 64 60 56 53 50 47 45 45 44 42 41 42 41 39 36 37 36 33 35